Showing default

INSAT 3DR, 41752

Orbit data source: Space-Track

INSAT 3DR, 41752 is a payload satellite owned by ISRO (IN) in GEO that was launched on Thu, 08 Sep 2016 UTC via a GSLV MK II launch vehicle from the Sirharikota (SRI). Payload-class satellites include a variety of spacecraft equipped with specific instruments for various scientific and technological missions. These include communications satellites like Starlink; space stations such as the ISS; scientific satellites like the Hubble; Earth observation satellites from companies like Planet Labs, Umbra, and HawkEye 360; GPS; miniature CubeSats for education and research; and military/defense satellites.

Not visible in the next 10 days
Identifier
41752, 2016-054A
Orbit
GEO
Country
Flag of ININ / IND
Related business
Manufacturer
ISRO
Mission
Operational Civil Weather
Bus & Motor
I2K, ISRO LAM
Mass
2,211 kg wet, 956 kg dry
Launch date (UTC)
2016-09-08 (10 years ago)
Launch vehicle
GSLV MK II
Launch site
Sirharikota (SRI)
Object type
Payload
Rocket body
Debris
Shape & HBR
Box + 2 Pan, 4.8 m
Radar Cross Section
8.526 m², Large (>1 m²)

Expand to show TLE details & history
Last TLE update: 2 days ago

TLE from 2 days ago
0 INSAT 3DR
1 41752U 16054A   26171.40667204 -.00000081  00000-0  00000+0 0  9990
2 41752   0.1148  86.2468 0010425 187.4441 215.2920  1.00271300 35856
Epoch: 2026-06-20T09:45Z
TLE epoch observation values (Epoch: 2026-06-20T09:45:36.464Z)
Latitude
0.09191°
Longitude
73.90223°
Altitude
35,822.227 km
Speed
3.072 km/s
True Right ascension
08h 35m 42s
True Declination
0° 05' 31"
Sunlit
Object was in daylight at epoch
Visualization orbit readout
Latitude
Unknown
Longitude
Unknown
Altitude
Unknown
Speed
Unknown
Apparent Right ascension
Unknown
Apparent Declination
Unknown
Sunlit
N/A
Visualization observer readout
Local Sidereal Time
21:36:01
Azimuth
Unknown
Elevation
Unknown
Doppler factor
Unknown
Orbital elements
Apogee altitude
35,831.759 km
Perigee altitude
35,743.843 km
Semi-major axis
42,165.938 km
Eccentricity
0.00104
Inclination
0.1148°
RAAN
86.2468°
Arg. of periapsis
187.4441°
True anomaly
215.22306°
Mean anomaly
215.292°
Eccentric anomaly
215.25752°
Mean motion
0.25067 °/min
Orbital period
1,436.16 mins
BSTAR
0
Loading maneuver chart data...
Computing Atmospheric mass density...
Loading historical data...
Loading historical data...
Loading historical data...
Loading historical data...
Loading historical data...
Loading historical data...
Loading historical data...
Other satellites on launch #54 in the year 2016 (2016-09-08 UTC)

Documentation

Showing up to 5 results
|